GW5441 Weather Reports


Display with metric or nautical units.
time (UTC)temp
F
wind
direction
speed
MPH
gust
MPH
rain 1hr
in
rain 24hr
in
rain mn
in
humidity
%
barometer
mb
20260503004555 55 352 2.0 3.0 0.00 0.00 0.00 70 1021.7
20260503004035 55 5 1.0 4.0 0.00 0.00 0.00 69 1021.7
20260503003535 55 325 2.0 4.0 0.00 0.00 0.00 69 1021.8
20260503003108 55 330 2.0 3.0 0.00 0.00 0.00 70 1021.7
20260503002537 56 355 1.0 3.0 0.00 0.00 0.00 70 1021.9
20260503002035 56 341 1.0 3.0 0.00 0.00 0.00 69 1021.8
20260503001550 56 290 0.0 3.0 0.00 0.00 0.00 69 1021.9
20260503001038 56 5 2.0 3.0 0.00 0.00 0.00 69 1022.0
20260503000535 56 25 1.0 3.0 0.00 0.00 0.00 69 1022.1
20260503000051 56 35 2.0 3.0 0.00 0.00 0.00 69 1022.1
20260502235535 56 321 0.0 3.0 0.00 0.00 0.00 69 1022.1
20260502235035 56 340 1.0 3.0 0.00 0.00 0.00 68 1022.3
20260502234600 56 0 1.0 3.0 0.00 0.00 0.00 69 1022.2
20260502234035 56 5 2.0 3.0 0.00 0.00 0.00 69 1022.3
20260502233536 56 0 1.0 3.0 0.00 0.00 0.00 70 1022.2
20260502233047 56 355 1.0 4.0 0.00 0.00 0.00 69 1022.3
20260502232535 56 35 2.0 4.0 0.00 0.00 0.00 70 1022.3
20260502232035 56 21 2.0 4.0 0.00 0.00 0.00 70 1022.3
20260502231547 56 15 2.0 4.0 0.00 0.00 0.00 69 1022.3
20260502231036 56 12 1.0 4.0 0.00 0.00 0.00 69 1022.3
20260502230536 57 355 2.0 4.0 0.00 0.00 0.00 69 1022.4
20260502230047 57 355 2.0 3.0 0.00 0.00 0.00 68 1022.3
20260502225538 57 5 2.0 3.0 0.00 0.00 0.00 68 1022.3
20260502225035 57 18 2.0 3.0 0.00 0.00 0.00 68 1022.3
20260502224552 57 11 1.0 4.0 0.00 0.00 0.00 67 1022.3
20260502224036 57 355 2.0 4.0 0.00 0.00 0.00 67 1022.2
20260502223535 58 14 2.0 4.0 0.00 0.00 0.00 67 1022.3
20260502223059 58 0 1.0 4.0 0.00 0.00 0.00 66 1022.2
20260502222535 58 355 2.0 4.0 0.00 0.00 0.00 66 1022.2
20260502222034 58 355 2.0 4.0 0.00 0.00 0.00 66 1022.2
20260502221546 58 355 1.0 4.0 0.00 0.00 0.00 64 1022.2
20260502221035 59 350 2.0 4.0 0.00 0.00 0.00 64 1022.2
20260502220535 59 344 1.0 4.0 0.00 0.00 0.00 64 1022.2
20260502220055 59 331 1.0 3.0 0.00 0.00 0.00 63 1022.1
20260502215535 59 355 2.0 3.0 0.00 0.00 0.00 63 1022.1
20260502215035 60 5 1.0 3.0 0.00 0.00 0.00 62 1022.1
20260502214604 60 19 1.0 3.0 0.00 0.00 0.00 60 1022.2
20260502214035 60 348 1.0 3.0 0.00 0.00 0.00 61 1022.1
20260502213538 60 13 1.0 4.0 0.00 0.00 0.00 60 1022.1
20260502213103 60 36 1.0 4.0 0.00 0.00 0.00 59 1022.1
20260502212535 60 338 1.0 4.0 0.00 0.00 0.00 60 1022.2
20260502212038 60 329 1.0 3.0 0.00 0.00 0.00 59 1022.1
20260502211554 60 360 1.0 5.0 0.00 0.00 0.00 59 1022.0
20260502211038 61 22 1.0 5.0 0.00 0.00 0.00 59 1022.1
20260502210535 61 349 1.0 5.0 0.00 0.00 0.00 58 1022.1
20260502210050 61 0 1.0 3.0 0.00 0.00 0.00 58 1022.1
20260502205535 61 9 0.0 4.0 0.00 0.00 0.00 59 1022.1
20260502205037 61 0 0.0 4.0 0.00 0.00 0.00 58 1022.0
20260502204548 61 342 1.0 4.0 0.00 0.00 0.00 57 1022.0
20260502204035 61 322 1.0 4.0 0.00 0.00 0.00 57 1022.1
20260502203533 61 360 1.0 8.0 0.00 0.00 0.00 57 1022.0
20260502203111 61 0 1.0 8.0 0.00 0.00 0.00 57 1021.9
20260502202535 62 346 2.0 8.0 0.00 0.00 0.00 57 1021.9
20260502202040 62 40 1.0 4.0 0.00 0.00 0.00 57 1022.0
20260502201548 62 347 1.0 5.0 0.00 0.00 0.00 56 1021.9
20260502201034 62 302 2.0 7.0 0.00 0.00 0.00 57 1021.9
20260502200535 62 0 1.0 7.0 0.00 0.00 0.00 56 1021.9
20260502200057 62 352 1.0 5.0 0.00 0.00 0.00 56 1021.8
20260502195534 62 355 1.0 6.0 0.00 0.00 0.00 57 1021.8
20260502195034 62 0 1.0 6.0 0.00 0.00 0.00 56 1021.7
20260502194551 62 351 1.0 5.0 0.00 0.00 0.00 57 1021.8
20260502194033 62 0 1.0 6.0 0.00 0.00 0.00 57 1021.8
20260502193536 62 17 1.0 6.0 0.00 0.00 0.00 57 1021.6
20260502193048 63 271 1.0 9.0 0.00 0.00 0.00 56 1021.6
20260502192535 63 302 1.0 9.0 0.00 0.00 0.00 55 1021.6
20260502192036 63 346 0.0 5.0 0.00 0.00 0.00 55 1021.6
20260502191549 63 355 1.0 5.0 0.00 0.00 0.00 55 1021.6
20260502191034 63 0 1.0 5.0 0.00 0.00 0.00 55 1021.5
20260502190539 63 336 1.0 7.0 0.00 0.00 0.00 55 1021.5
20260502190047 63 9 1.0 7.0 0.00 0.00 0.00 55 1021.5
20260502185534 63 0 1.0 5.0 0.00 0.00 0.00 55 1021.5
20260502185038 63 355 1.0 5.0 0.00 0.00 0.00 55 1021.4
20260502184546 64 0 1.0 7.0 0.00 0.00 0.00 54 1021.3
20260502184035 64 0 1.0 7.0 0.00 0.00 0.00 54 1021.4
20260502183534 64 355 1.0 5.0 0.00 0.00 0.00 54 1021.3
20260502183043 64 323 2.0 5.0 0.00 0.00 0.00 54 1021.3
20260502182534 64 40 1.0 5.0 0.00 0.00 0.00 54 1021.2
20260502182033 64 307 1.0 5.0 0.00 0.00 0.00 53 1021.0
20260502181551 65 347 1.0 3.0 0.00 0.00 0.00 54 1021.1
20260502181036 65 360 1.0 4.0 0.00 0.00 0.00 53 1021.0
20260502180534 65 0 1.0 5.0 0.00 0.00 0.00 53 1021.0
20260502164034 71 224 3.0 10.0 0.00 0.00 0.00 47 1020.8
20260502163534 71 250 5.0 10.0 0.00 0.00 0.00 47 1020.8
20260502163059 71 245 4.0 8.0 0.00 0.00 0.00 45 1020.9
20260502162536 71 259 4.0 9.0 0.00 0.00 0.00 46 1021.0
20260502162034 71 255 3.0 9.0 0.00 0.00 0.00 45 1021.0
20260502161618 71 260 3.0 9.0 0.00 0.00 0.00 43 1021.0
20260502161033 72 223 3.0 8.0 0.00 0.00 0.00 43 1020.9
20260502160535 72 273 4.0 10.0 0.00 0.00 0.00 44 1021.1
20260502152034 73 255 5.0 11.0 0.00 0.00 0.00 39 1021.4
20260502151546 73 194 5.0 14.0 0.00 0.00 0.00 40 1021.3
20260502151033 73 251 2.0 14.0 0.00 0.00 0.00 39 1021.4
20260502150535 73 263 4.0 13.0 0.00 0.00 0.00 40 1021.4
20260502130534 71 253 5.0 11.0 0.00 0.00 0.00 40 1023.1
20260502123535 71 277 4.0 10.0 0.00 0.00 0.00 41 1023.5
20260502123110 70 309 5.0 12.0 0.00 0.00 0.00 42 1023.6
20260502122537 70 263 5.0 12.0 0.00 0.00 0.00 43 1023.6
20260502122038 70 236 7.0 14.0 0.00 0.00 0.00 41 1023.7
20260502121552 70 261 7.0 14.0 0.00 0.00 0.00 41 1023.9
20260502121034 70 257 7.0 13.0 0.00 0.00 0.00 44 1023.9
20260502120533 70 242 6.0 12.0 0.00 0.00 0.00 40 1024.0
20260502120108 69 285 6.0 13.0 0.00 0.00 0.00 41 1023.9
20260502115535 69 273 6.0 13.0 0.00 0.00 0.00 43 1024.1
20260502115036 69 271 5.0 15.0 0.00 0.00 0.00 44 1024.1
20260502114548 69 266 8.0 15.0 0.00 0.00 0.00 43 1024.3
20260502114037 69 238 5.0 11.0 0.00 0.00 0.00 40 1024.2
20260502113535 69 240 6.0 13.0 0.00 0.00 0.00 43 1024.3
20260502113054 69 257 4.0 13.0 0.00 0.00 0.00 44 1024.3
20260502112533 68 280 5.0 11.0 0.00 0.00 0.00 43 1024.4
20260502112035 68 254 5.0 12.0 0.00 0.00 0.00 45 1024.5
20260502111545 68 261 5.0 12.0 0.00 0.00 0.00 46 1024.6
20260502111034 68 259 6.0 12.0 0.00 0.00 0.00 46 1024.7
20260502110534 67 250 7.0 12.0 0.00 0.00 0.00 47 1024.8
20260502110054 67 233 5.0 10.0 0.00 0.00 0.00 49 1024.8
20260502105534 67 260 5.0 12.0 0.00 0.00 0.00 50 1025.0
20260502105033 66 250 6.0 12.0 0.00 0.00 0.00 50 1025.0
20260502104552 67 240 6.0 10.0 0.00 0.00 0.00 51 1025.3
20260502104035 67 229 6.0 12.0 0.00 0.00 0.00 48 1025.2
20260502103535 66 284 5.0 12.0 0.00 0.00 0.00 53 1025.4
20260502103046 66 276 5.0 11.0 0.00 0.00 0.00 52 1025.5
20260502102535 65 257 4.0 13.0 0.00 0.00 0.00 54 1025.5
20260502102036 65 244 7.0 13.0 0.00 0.00 0.00 53 1025.6
20260502101547 65 255 6.0 12.0 0.00 0.00 0.00 54 1025.6
20260502101034 65 238 7.0 12.0 0.00 0.00 0.00 56 1025.7
20260502100534 65 264 5.0 12.0 0.00 0.00 0.00 54 1025.8
20260502091035 62 204 3.0 7.0 0.00 0.00 0.00 66 1026.3
20260502090534 62 218 3.0 7.0 0.00 0.00 0.00 64 1026.3
20260502071034 55 220 1.0 4.0 0.00 0.00 0.00 73 1027.1
20260502070534 54 236 2.0 4.0 0.00 0.00 0.00 73 1027.2
20260502070107 54 240 2.0 4.0 0.00 0.00 0.00 74 1027.3
20260502065534 54 250 2.0 3.0 0.00 0.00 0.00 75 1027.4
20260502065033 54 245 2.0 3.0 0.00 0.00 0.00 76 1027.5
20260502064553 53 231 1.0 2.0 0.00 0.00 0.00 76 1027.3
20260502064033 53 200 0.0 3.0 0.00 0.00 0.00 77 1027.2
20260502063535 53 200 0.0 3.0 0.00 0.00 0.00 78 1027.3
20260502063051 53 200 1.0 2.0 0.00 0.00 0.00 79 1027.3
20260502062533 52 250 0.0 2.0 0.00 0.00 0.00 78 1027.3
20260502062032 52 148 0.0 1.0 0.00 0.00 0.00 78 1027.4
20260502061547 52 148 0.0 3.0 0.00 0.00 0.00 78 1027.2
20260502061035 52 0 1.0 3.0 0.00 0.00 0.00 80 1027.3
20260502060534 52 83 0.0 2.0 0.00 0.00 0.00 80 1027.5
20260502060052 51 0 0.0 0.0 0.00 0.00 0.00 80 1027.3
20260502055535 51 0 0.0 0.0 0.00 0.00 0.00 80 1027.4
20260502055033 51 0 0.0 0.0 0.00 0.00 0.00 80 1027.5
20260502054548 51 0 0.0 0.0 0.00 0.00 0.00 80 1027.6
20260502054033 50 0 0.0 0.0 0.00 0.00 0.00 81 1027.5
20260502053533 50 0 0.0 0.0 0.00 0.00 0.00 81 1027.6
20260502053053 50 0 0.0 1.0 0.00 0.00 0.00 81 1027.6
20260502052535 50 0 0.0 2.0 0.00 0.00 0.00 82 1027.6
20260502052040 50 0 0.0 2.0 0.00 0.00 0.00 82 1027.6
20260502051600 49 0 0.0 2.0 0.00 0.00 0.00 82 1027.5
20260502051034 49 5 0.0 2.0 0.00 0.00 0.00 82 1027.4
20260502050534 49 5 1.0 2.0 0.00 0.00 0.00 82 1027.4
20260502050051 49 5 1.0 2.0 0.00 0.00 0.00 82 1027.6
20260502045534 49 5 0.0 2.0 0.00 0.00 0.00 81 1027.4
20260502045036 49 5 0.0 2.0 0.00 0.00 0.00 82 1027.4
20260502044545 49 0 0.0 2.0 0.00 0.00 0.00 82 1027.4
20260502044033 49 0 0.0 2.0 0.00 0.00 0.00 82 1027.4
20260502043533 49 5 1.0 2.0 0.00 0.00 0.00 82 1027.3
20260502043046 49 14 1.0 3.0 0.00 0.00 0.00 81 1027.1
20260502042534 49 44 1.0 3.0 0.00 0.00 0.00 81 1027.1
20260502042037 49 0 1.0 3.0 0.00 0.00 0.00 81 1027.1
20260502041546 49 360 1.0 3.0 0.00 0.00 0.00 81 1027.1
20260502041033 49 15 1.0 3.0 0.00 0.00 0.00 81 1027.1
20260502040533 49 29 1.0 3.0 0.00 0.00 0.00 81 1027.1
20260502035536 49 22 2.0 3.0 0.00 0.00 0.00 80 1027.0
20260502035036 49 5 1.0 3.0 0.00 0.00 0.00 80 1027.0
20260502034548 49 321 0.0 2.0 0.00 0.00 0.00 80 1027.0
20260502034034 49 348 0.0 3.0 0.00 0.00 0.00 80 1027.0
20260502033534 49 360 1.0 3.0 0.00 0.00 0.00 80 1026.9
20260502033051 49 348 1.0 3.0 0.00 0.00 0.00 80 1027.0
20260502032534 49 351 1.0 3.0 0.00 0.00 0.00 80 1027.0
20260502032034 49 355 1.0 3.0 0.00 0.00 0.00 80 1027.0
20260502031549 49 18 1.0 3.0 0.00 0.00 0.00 80 1027.0
20260502031036 49 22 1.0 3.0 0.00 0.00 0.00 80 1027.0
20260502030534 49 360 1.0 3.0 0.00 0.00 0.00 80 1027.0
20260502030051 49 22 1.0 3.0 0.00 0.00 0.00 80 1026.9
20260502025533 49 348 1.0 3.0 0.00 0.00 0.00 80 1027.0
20260502025035 49 335 1.0 3.0 0.00 0.00 0.00 79 1027.1
20260502024547 49 10 1.0 3.0 0.00 0.00 0.00 79 1027.0
20260502024036 50 360 1.0 3.0 0.00 0.00 0.00 79 1026.9
20260502023537 50 351 1.0 3.0 0.00 0.00 0.00 79 1027.0
20260502023048 50 360 1.0 3.0 0.00 0.00 0.00 79 1026.9
20260502022534 50 32 1.0 3.0 0.00 0.00 0.00 79 1026.9
20260502022035 50 11 1.0 3.0 0.00 0.00 0.00 78 1026.9
20260502021545 50 25 1.0 3.0 0.00 0.00 0.00 78 1026.9
20260502021035 50 5 2.0 3.0 0.00 0.00 0.00 78 1026.9
20260502020534 50 13 1.0 3.0 0.00 0.00 0.00 77 1026.9
20260502020049 50 349 1.0 3.0 0.00 0.00 0.00 77 1026.9
20260502015536 50 0 0.0 2.0 0.00 0.00 0.00 77 1026.9
20260502015037 50 360 0.0 3.0 0.00 0.00 0.00 77 1026.9
20260502014545 50 343 0.0 3.0 0.00 0.00 0.00 77 1026.8
20260502014040 50 329 1.0 3.0 0.00 0.00 0.00 78 1026.8
20260502013534 50 360 2.0 3.0 0.00 0.00 0.00 77 1026.9
20260502013048 50 355 2.0 3.0 0.00 0.00 0.00 77 1026.9
20260502012536 50 355 2.0 3.0 0.00 0.00 0.00 77 1026.9
20260502012036 51 355 2.0 3.0 0.00 0.00 0.00 77 1026.9
20260502011548 51 22 1.0 3.0 0.00 0.00 0.00 76 1026.9
20260502011032 51 24 2.0 3.0 0.00 0.00 0.00 76 1026.9
20260502010534 51 36 1.0 3.0 0.00 0.00 0.00 76 1026.9
20260502010050 51 32 1.0 3.0 0.00 0.00 0.00 76 1026.8
20260502005534 51 26 1.0 3.0 0.00 0.00 0.00 75 1026.9
20260502005036 51 11 1.0 3.0 0.00 0.00 0.00 75 1026.9